{"data":{"norad_id":59689,"epoch":"2026-09-21T15:24:46.304640Z","epoch_age_seconds":72648,"freshness":"FRESH","line1":"1 59689U 24086H   26264.64220260  .00004814  00000+0  18446-3 0  9991","line2":"2 59689  42.9993  32.9945 0000399 222.1433 137.9388 15.27559695134084","mean_motion":15.27559695,"eccentricity":3.99e-5,"inclination_deg":42.9993,"raan_deg":32.9945,"arg_perigee_deg":222.1433,"mean_anomaly_deg":137.9388,"bstar":0.00018446,"rev_number":13408,"period_min":94.268001749025,"perigee_km":482.83613343663,"apogee_km":483.38366093902,"semimajor_km":6861.2468971878,"source":"CELESTRAK","updated_at":"2026-09-22T09:00:49.033407Z"}}